When you browse on this site, cookies collect data to enhance your experience and personalize the content and advertising you see.
Visit our Privacy Policy to learn more. By continuing to use the site, you agree to this use of cookies and data.
  • Em Portugal
  • Lista de países
  • Para 7 dias
  • Temperatura da água
  • Mapas de satélite
  • Mapa do tempo
  • Widgets de tempo
  • user-avatar
    Iniciar Sessão

    Previsão horária em Prutz

    Hoje, 24 Março, Domingo

    Tempo Temperatura Precipitação Vento Pressão Humidade
    00:00 +2°C° 0 mm 2 m/s 636 mmHg 77%
    01:00 +2°C° 0 mm 2 m/s 636 mmHg 69%
    02:00 +2°C° 0 mm 2 m/s 636 mmHg 67%
    03:00 +2°C° 0 mm 2 m/s 636 mmHg 66%
    04:00 +1°C° 0 mm 2 m/s 635 mmHg 64%
    05:00 +1°C° 0 mm 2 m/s 635 mmHg 64%
    06:00 +1°C° 0 mm 2 m/s 635 mmHg 63%
    07:00 +1°C° 0 mm 2 m/s 635 mmHg 63%
    08:00 +4°C° 0 mm 2 m/s 636 mmHg 69%
    09:00 +7°C° 0 mm 1 m/s 636 mmHg 76%
    10:00 +9°C° 0 mm 1 m/s 636 mmHg 82%
    11:00 +9°C° 0 mm 1 m/s 636 mmHg 81%
    12:00 +10°C° 0 mm 1 m/s 636 mmHg 79%
    13:00 +10°C° 0 mm 1 m/s 636 mmHg 78%
    14:00 +10°C° 0 mm 1 m/s 635 mmHg 80%
    15:00 +10°C° 0 mm 1 m/s 635 mmHg 81%
    16:00 +9°C° 0 mm 1 m/s 635 mmHg 83%
    17:00 +7°C° 0 mm 1 m/s 634 mmHg 87%
    18:00 +5°C° 0 mm 1 m/s 633 mmHg 91%
    19:00 +3°C° 0 mm 1 m/s 633 mmHg 95%
    20:00 +3°C° 0 mm 1 m/s 633 mmHg 95%
    21:00 +3°C° 0 mm 1 m/s 633 mmHg 95%
    22:00 +3°C° 0 mm 1 m/s 634 mmHg 95%
    23:00 +3°C° 0 mm 1 m/s 633 mmHg 95%

    Amanhã, 25 Março, Segunda-feira

    Tempo Temperatura Precipitação Vento Pressão Humidade
    00:00 +3°C° 0 mm 1 m/s 633 mmHg 95%
    01:00 +2°C° 0 mm 1 m/s 633 mmHg 95%
    02:00 +2°C° 0 mm 1 m/s 633 mmHg 95%
    03:00 +2°C° 0 mm 1 m/s 632 mmHg 95%
    04:00 +2°C° 0 mm 1 m/s 632 mmHg 96%
    05:00 +2°C° 0.1 mm 1 m/s 632 mmHg 96%
    06:00 +2°C° 0.1 mm 1 m/s 632 mmHg 96%
    07:00 +2°C° 0.1 mm 1 m/s 632 mmHg 97%
    08:00 +2°C° 0.1 mm 2 m/s 632 mmHg 94%
    09:00 +3°C° 0.1 mm 2 m/s 632 mmHg 91%
    10:00 +3°C° 0.1 mm 2 m/s 632 mmHg 88%
    11:00 +2°C° 0.2 mm 3 m/s 632 mmHg 87%
    12:00 +2°C° 0.2 mm 3 m/s 631 mmHg 86%
    13:00 +3°C° 0.2 mm 3 m/s 631 mmHg 85%
    14:00 +2°C° 0.3 mm 3 m/s 631 mmHg 86%
    15:00 +1°C° 0.3 mm 3 m/s 630 mmHg 87%
    16:00 0°C° 0.3 mm 3 m/s 630 mmHg 87%
    17:00 -2°C° 0.9 mm 4 m/s 630 mmHg 90%
    18:00 -3°C° 0.9 mm 4 m/s 630 mmHg 93%
    19:00 -5°C° 0.9 mm 4 m/s 630 mmHg 96%
    20:00 -7°C° 0.7 mm 4 m/s 631 mmHg 96%
    21:00 -7°C° 0.7 mm 4 m/s 631 mmHg 96%
    22:00 -8°C° 0.7 mm 4 m/s 631 mmHg 95%
    23:00 -8°C° 0.1 mm 3 m/s 631 mmHg 95%

    Depois de amanhã, 26 Março, Terça-feira

    Tempo Temperatura Precipitação Vento Pressão Humidade
    00:00 -8°C° 0.1 mm 3 m/s 632 mmHg 95%
    01:00 -9°C° 0.1 mm 3 m/s 632 mmHg 95%
    02:00 -8°C° 0.2 mm 2 m/s 632 mmHg 94%
    03:00 -8°C° 0.2 mm 2 m/s 633 mmHg 93%
    04:00 -8°C° 0.2 mm 2 m/s 633 mmHg 92%
    05:00 -8°C° 0.1 mm 2 m/s 633 mmHg 93%
    06:00 -8°C° 0.1 mm 2 m/s 634 mmHg 93%
    07:00 -8°C° 0.1 mm 2 m/s 634 mmHg 93%
    08:00 -7°C° 0 mm 2 m/s 634 mmHg 86%
    09:00 -7°C° 0 mm 3 m/s 635 mmHg 80%
    10:00 -5°C° 0 mm 3 m/s 636 mmHg 74%
    11:00 -5°C° 0 mm 3 m/s 636 mmHg 73%
    12:00 -4°C° 0 mm 3 m/s 636 mmHg 72%
    13:00 -2°C° 0 mm 3 m/s 636 mmHg 72%
    14:00 -2°C° 0 mm 3 m/s 636 mmHg 73%
    15:00 -2°C° 0 mm 3 m/s 636 mmHg 74%
    16:00 -2°C° 0 mm 3 m/s 635 mmHg 76%
    17:00 -4°C° 0 mm 2 m/s 635 mmHg 81%
    18:00 -5°C° 0 mm 2 m/s 635 mmHg 87%
    19:00 -6°C° 0 mm 1 m/s 635 mmHg 92%
    20:00 -6°C° 0 mm 1 m/s 635 mmHg 92%
    21:00 -7°C° 0 mm 1 m/s 635 mmHg 92%
    22:00 -8°C° 0 mm 1 m/s 635 mmHg 92%
    23:00 -8°C° 0 mm 1 m/s 635 mmHg 88%

    27 Março, Quarta-feira

    Tempo Temperatura Precipitação Vento Pressão Humidade
    00:00 -8°C° 0 mm 1 m/s 635 mmHg 84%
    01:00 -8°C° 0 mm 1 m/s 635 mmHg 81%
    02:00 -8°C° 0 mm 1 m/s 635 mmHg 77%
    03:00 -7°C° 0 mm 1 m/s 635 mmHg 74%
    04:00 -6°C° 0 mm 1 m/s 635 mmHg 71%
    05:00 -6°C° 0 mm 1 m/s 636 mmHg 72%
    06:00 -4°C° 0 mm 1 m/s 636 mmHg 72%
    07:00 -4°C° 0 mm 1 m/s 636 mmHg 73%
    08:00 -5°C° 0 mm 2 m/s 637 mmHg 72%
    09:00 -3°C° 0 mm 2 m/s 637 mmHg 71%
    10:00 -2°C° 0 mm 2 m/s 638 mmHg 70%
    11:00 -1°C° 0 mm 2 m/s 637 mmHg 74%
    12:00 -1°C° 0 mm 2 m/s 637 mmHg 77%
    13:00 +1°C° 0 mm 2 m/s 637 mmHg 81%
    14:00 +1°C° 0.1 mm 2 m/s 637 mmHg 82%
    15:00 +1°C° 0.1 mm 2 m/s 637 mmHg 82%
    16:00 -1°C° 0.1 mm 2 m/s 637 mmHg 83%
    17:00 -2°C° 0 mm 2 m/s 637 mmHg 87%
    18:00 -3°C° 0 mm 2 m/s 637 mmHg 91%
    19:00 -4°C° 0 mm 2 m/s 637 mmHg 95%
    20:00 -4°C° 0 mm 2 m/s 637 mmHg 95%
    21:00 -3°C° 0 mm 1 m/s 637 mmHg 94%
    22:00 -4°C° 0 mm 1 m/s 638 mmHg 94%
    23:00 -4°C° 0 mm 1 m/s 638 mmHg 92%

    28 Março, Quinta-feira

    Tempo Temperatura Precipitação Vento Pressão Humidade
    00:00 -6°C° 0 mm 1 m/s 637 mmHg 90%
    01:00 -6°C° 0 mm 1 m/s 637 mmHg 89%
    02:00 -6°C° 0 mm 1 m/s 637 mmHg 87%
    03:00 -6°C° 0 mm 1 m/s 637 mmHg 84%
    04:00 -6°C° 0 mm 1 m/s 637 mmHg 82%
    05:00 -6°C° 0 mm 1 m/s 637 mmHg 81%
    06:00 -4°C° 0 mm 1 m/s 637 mmHg 80%
    07:00 -4°C° 0 mm 1 m/s 638 mmHg 79%
    08:00 -4°C° 0 mm 2 m/s 638 mmHg 77%
    09:00 -2°C° 0 mm 2 m/s 639 mmHg 75%
    10:00 +1°C° 0 mm 2 m/s 639 mmHg 73%
    11:00 +2°C° 0 mm 2 m/s 639 mmHg 74%
    12:00 +2°C° 0 mm 2 m/s 639 mmHg 76%
    13:00 +3°C° 0 mm 2 m/s 639 mmHg 78%
    14:00 +3°C° 0.1 mm 2 m/s 638 mmHg 78%
    15:00 +2°C° 0.1 mm 2 m/s 638 mmHg 78%
    16:00 +2°C° 0.1 mm 2 m/s 638 mmHg 78%
    17:00 +1°C° 0 mm 2 m/s 637 mmHg 83%
    18:00 -2°C° 0 mm 2 m/s 637 mmHg 88%
    19:00 -1°C° 0 mm 1 m/s 637 mmHg 93%
    20:00 -1°C° 0 mm 1 m/s 637 mmHg 92%
    21:00 -2°C° 0 mm 1 m/s 637 mmHg 91%
    22:00 -3°C° 0 mm 1 m/s 638 mmHg 90%
    23:00 -3°C° 0 mm 1 m/s 638 mmHg 88%

    29 Março, Sexta-feira

    Tempo Temperatura Precipitação Vento Pressão Humidade
    00:00 -3°C° 0 mm 1 m/s 637 mmHg 85%
    01:00 -3°C° 0 mm 1 m/s 637 mmHg 83%
    02:00 -3°C° 0 mm 1 m/s 637 mmHg 81%
    03:00 -5°C° 0 mm 2 m/s 637 mmHg 78%
    04:00 -5°C° 0 mm 2 m/s 637 mmHg 76%
    05:00 -5°C° 0 mm 2 m/s 637 mmHg 75%
    06:00 -4°C° 0 mm 2 m/s 637 mmHg 73%
    07:00 -4°C° 0 mm 2 m/s 638 mmHg 71%
    08:00 0°C° 0 mm 1 m/s 638 mmHg 66%
    09:00 +3°C° 0 mm 1 m/s 639 mmHg 62%
    10:00 +4°C° 0 mm 0 m/s 639 mmHg 58%
    11:00 +5°C° 0 mm 0 m/s 639 mmHg 59%
    12:00 +6°C° 0 mm 1 m/s 639 mmHg 59%
    13:00 +7°C° 0 mm 1 m/s 639 mmHg 60%
    14:00 +7°C° 0 mm 1 m/s 638 mmHg 63%
    15:00 +6°C° 0 mm 1 m/s 638 mmHg 66%
    16:00 +6°C° 0 mm 1 m/s 638 mmHg 69%
    17:00 +4°C° 0 mm 1 m/s 637 mmHg 76%
    18:00 +2°C° 0 mm 1 m/s 637 mmHg 83%
    19:00 -1°C° 0 mm 0 m/s 636 mmHg 90%
    20:00 0°C° 0 mm 1 m/s 636 mmHg 87%
    21:00 0°C° 0 mm 1 m/s 637 mmHg 83%
    22:00 -2°C° 0 mm 2 m/s 637 mmHg 80%
    23:00 -2°C° 0 mm 2 m/s 637 mmHg 78%
    Mostrar mais